Temp
-11 -11 -11 -11 -12 -12 -12 -13 -12 -12 -12 -13 -12 -13 -13 -13 -14 -14 -14 -13 -13 -14 -14 -14 -14 -14 -14 -15 -15 -14 -14 -14 -15 -15 -15 -15 -14 -15 -14 -15 -15 -14 -14 -15 -15 -15 -15 -15 -14 -14 -14 -14 -13 -14
-11 -11 -12 -11 -12 -12 -13 -13 -13 -13 -13 -13 -13 -13 -13 -14 -14 -13 -14 -14 -14 -14 -14 -14 -14 -14 -15 -15 -14 -14 -15 -15 -15 -15 -16 -15 -15 -15 -15 -14 -14 -14 -14 -14 -15 -15 -15 -15 -15 -14 -15 -15 -14 -14
-11 -11 -12 -12 -13 -13 -14 -13 -13 -13 -13 -13 -13 -13 -13 -14 -14 -14 -14 -14 -14 -14 -14 -14 -14 -14 -14 -15 -15 -15 -16 -15 -14 -15 -15 -14 -15 -15 -16 -16 -15 -14 -14 -14 -14 -14 -15 -15 -14 -15 -15 -15 -15 -15
-11 -12 -13 -13 -13 -14 -14 -13 -13 -13 -13 -13 -13 -13 -13 -14 -14 -14 -14 -14 -14 -14 -14 -14 -14 -14 -14 -14 -14 -14 -15 -15 -15 -16 -16 -16 -15 -16 -15 -14 -14 -14 -14 -14 -14 -14 -15 -15 -15 -15 -15 -16 -16 -15
-12 -13 -13 -14 -14 -14 -14 -14 -13 -14 -14 -14 -14 -14 -14 -14 -14 -14 -14 -14 -14 -14 -14 -14 -14 -14 -15 -15 -14 -14 -14 -15 -16 -16 -16 -16 -16 -15 -14 -14 -14 -14 -14 -14 -15 -17 -15 -17 -16 -15 -16 -16 -16 -15
-13 -14 -14 -14 -14 -14 -14 -14 -14 -14 -14 -14 -14 -14 -14 -14 -14 -14 -14 -15 -15 -15 -14 -14 -13 -14 -15 -15 -15 -15 -15 -16 -16 -16 -16 -16 -16 -14 -13 -14 -14 -14 -14 -15 -15 -16 -16 -16 -17 -16 -16 -16 -16 -16
-14 -14 -14 -14 -14 -14 -14 -14 -14 -14 -14 -14 -14 -14 -14 -14 -14 -14 -14 -15 -15 -15 -15 -15 -14 -14 -16 -16 -15 -16 -15 -15 -16 -16 -16 -16 -14 -13 -13 -14 -14 -14 -14 -15 -16 -16 -16 -17 -17 -17 -17 -16 -16 -16
-14 -15 -15 -15 -15 -15 -14 -14 -14 -14 -14 -14 -14 -14 -14 -14 -14 -14 -14 -15 -15 -16 -16 -15 -15 -15 -16 -16 -15 -15 -15 -16 -15 -16 -16 -15 -14 -14 -14 -13 -14 -14 -14 -15 -15 -15 -16 -16 -16 -16 -17 -17 -16 -16
-15 -15 -15 -15 -15 -15 -14 -14 -14 -14 -14 -14 -15 -15 -15 -15 -15 -15 -15 -15 -15 -15 -15 -16 -16 -17 -16 -16 -16 -15 -16 -16 -15 -16 -16 -15 -13 -13 -13 -13 -14 -14 -14 -15 -15 -15 -16 -16 -16 -16 -17 -17 -17 -16
-15 -15 -15 -16 -15 -15 -14 -15 -14 -14 -14 -15 -15 -15 -15 -15 -15 -15 -15 -15 -15 -15 -15 -16 -16 -17 -16 -16 -16 -16 -16 -16 -16 -16 -15 -14 -14 -13 -14 -14 -13 -14 -14 -14 -15 -16 -16 -16 -16 -16 -17 -17 -16 -16
-16 -16 -16 -16 -16 -16 -15 -15 -15 -15 -15 -15 -16 -16 -15 -15 -15 -15 -15 -15 -15 -15 -16 -16 -17 -17 -16 -16 -16 -16 -16 -15 -16 -16 -14 -14 -14 -14 -14 -14 -13 -13 -14 -14 -14 -15 -16 -16 -16 -16 -16 -16 -16 -16
-16 -16 -16 -16 -16 -16 -15 -15 -15 -15 -16 -16 -16 -16 -16 -16 -16 -15 -15 -16 -16 -16 -16 -17 -17 -17 -16 -16 -16 -15 -15 -15 -15 -15 -15 -14 -14 -13 -14 -14 -13 -13 -14 -14 -14 -15 -15 -16 -16 -16 -16 -16 -16 -16
-17 -16 -16 -17 -17 -16 -16 -16 -16 -16 -16 -16 -16 -16 -16 -16 -16 -16 -16 -16 -16 -16 -16 -16 -16 -16 -16 -16 -16 -15 -16 -15 -15 -15 -15 -15 -13 -13 -13 -13 -13 -13 -13 -14 -14 -14 -14 -15 -15 -15 -15 -15 -15 -15
-17 -17 -17 -16 -16 -16 -16 -16 -16 -16 -17 -16 -16 -16 -16 -16 -16 -16 -16 -16 -16 -16 -16 -16 -16 -16 -16 -16 -16 -16 -15 -15 -15 -15 -15 -16 -13 -14 -13 -13 -13 -13 -13 -13 -14 -14 -14 -14 -15 -15 -15 -15 -15 -15
-17 -17 -17 -17 -17 -17 -17 -17 -17 -17 -17 -17 -16 -16 -16 -16 -16 -16 -16 -16 -16 -16 -16 -16 -16 -16 -17 -17 -16 -16 -15 -14 -15 -15 -15 -15 -13 -14 -13 -13 -13 -13 -13 -14 -14 -14 -14 -14 -14 -14 -15 -15 -15 -15
-18 -18 -18 -18 -18 -17 -17 -17 -17 -17 -17 -17 -17 -17 -17 -17 -17 -16 -16 -16 -16 -16 -16 -16 -16 -16 -16 -16 -16 -15 -15 -15 -15 -15 -15 -15 -14 -14 -14 -14 -14 -13 -13 -14 -14 -14 -14 -14 -14 -14 -14 -15 -15 -15
-18 -18 -18 -18 -18 -18 -18 -17 -17 -17 -17 -17 -17 -17 -17 -17 -17 -16 -16 -16 -16 -16 -16 -16 -16 -16 -16 -16 -15 -15 -15 -16 -16 -16 -14 -14 -15 -14 -14 -14 -13 -13 -13 -13 -14 -14 -14 -14 -14 -14 -14 -14 -14 -14
-18 -18 -18 -18 -18 -18 -18 -18 -17 -17 -17 -17 -17 -17 -17 -17 -17 -17 -17 -16 -16 -16 -16 -16 -16 -16 -16 -16 -16 -15 -15 -15 -16 -16 -15 -14 -15 -14 -14 -14 -14 -14 -14 -14 -14 -14 -14 -14 -14 -14 -14 -14 -14 -14
-18 -18 -18 -18 -18 -18 -18 -18 -18 -18 -18 -17 -17 -18 -18 -17 -17 -17 -17 -16 -16 -16 -16 -16 -16 -16 -16 -16 -16 -15 -16 -16 -15 -16 -15 -14 -15 -14 -14 -14 -14 -14 -14 -14 -14 -14 -14 -15 -14 -14 -14 -14 -14 -14
-19 -19 -19 -19 -19 -19 -19 -19 -18 -18 -18 -18 -18 -18 -18 -18 -18 -17 -17 -17 -17 -16 -16 -16 -16 -16 -16 -16 -15 -15 -16 -15 -15 -16 -15 -14 -14 -14 -14 -14 -15 -14 -14 -14 -14 -15 -15 -15 -15 -15 -14 -15 -15 -15
-19 -19 -19 -20 -20 -19 -19 -19 -19 -19 -19 -19 -19 -18 -18 -18 -18 -17 -17 -17 -17 -16 -16 -16 -16 -16 -16 -15 -15 -16 -15 -16 -16 -16 -15 -15 -15 -14 -14 -15 -15 -15 -15 -15 -15 -15 -14 -14 -15 -15 -15 -15 -14 -14
-19 -19 -20 -20 -20 -20 -19 -19 -19 -19 -19 -19 -18 -18 -18 -18 -18 -18 -17 -17 -17 -17 -17 -16 -16 -16 -16 -16 -16 -15 -15 -15 -16 -16 -16 -15 -15 -14 -15 -15 -15 -15 -15 -15 -15 -15 -15 -15 -15 -14 -14 -14 -14 -15
-19 -20 -20 -20 -20 -19 -19 -19 -19 -19 -19 -19 -18 -18 -18 -18 -18 -18 -17 -17 -16 -16 -16 -16 -16 -16 -16 -16 -15 -16 -16 -17 -16 -16 -16 -16 -16 -15 -15 -15 -15 -15 -15 -15 -15 -15 -15 -15 -15 -15 -15 -15 -15 -15
-19 -19 -19 -19 -19 -19 -19 -19 -19 -19 -18 -18 -18 -18 -18 -18 -17 -17 -17 -17 -16 -16 -16 -16 -15 -15 -16 -16 -16 -16 -16 -16 -16 -16 -16 -16 -16 -15 -15 -16 -16 -16 -16 -15 -15 -15 -15 -15 -16 -16 -15 -15 -15 -15
-20 -19 -19 -20 -19 -19 -19 -19 -19 -18 -18 -18 -18 -17 -17 -17 -17 -16 -16 -16 -16 -16 -16 -16 -15 -15 -16 -16 -16 -16 -16 -16 -16 -16 -16 -16 -16 -16 -15 -15 -15 -15 -16 -15 -15 -15 -15 -15 -15 -16 -16 -15 -15 -15
-19 -20 -19 -19 -19 -19 -19 -18 -18 -18 -18 -17 -17 -17 -17 -17 -17 -16 -16 -16 -16 -16 -16 -16 -15 -16 -16 -16 -16 -16 -16 -16 -16 -16 -16 -16 -16 -16 -16 -15 -16 -15 -15 -15 -15 -15 -15 -15 -15 -15 -15 -15 -16 -16
-19 -19 -19 -18 -18 -18 -18 -18 -18 -18 -17 -17 -17 -17 -17 -16 -16 -16 -16 -16 -16 -16 -16 -16 -15 -16 -16 -16 -16 -15 -15 -16 -16 -16 -16 -16 -16 -16 -16 -16 -16 -16 -16 -16 -15 -15 -15 -15 -15 -15 -16 -17 -17 -17
-18 -18 -18 -18 -18 -18 -18 -18 -17 -17 -17 -17 -17 -16 -16 -16 -16 -16 -16 -16 -16 -15 -15 -16 -16 -16 -16 -16 -16 -16 -15 -16 -16 -16 -16 -16 -16 -16 -16 -16 -16 -16 -17 -17 -17 -18 -18 -18 -17 -17 -17 -17 -17 -17
-18 -18 -18 -18 -17 -17 -17 -17 -17 -17 -17 -17 -16 -16 -16 -16 -16 -16 -16 -16 -16 -15 -15 -16 -16 -16 -16 -16 -16 -16 -16 -16 -16 -17 -17 -17 -17 -17 -17 -17 -17 -17 -17 -17 -17 -17 -17 -17 -17 -17 -17 -17 -17 -17
-17 -18 -17 -17 -17 -17 -17 -17 -17 -16 -16 -16 -16 -16 -16 -16 -16 -16 -16 -16 -16 -16 -16 -16 -15 -16 -16 -16 -16 -16 -16 -16 -16 -16 -16 -16 -17 -17 -17 -17 -17 -17 -17 -17 -17 -17 -17 -17 -17 -17 -17 -17 -18 -17
-17 -17 -17 -17 -17 -17 -16 -16 -17 -16 -16 -16 -16 -16 -16 -16 -16 -16 -16 -16 -16 -16 -16 -16 -16 -16 -15 -16 -16 -16 -16 -16 -17 -17 -17 -17 -17 -17 -17 -17 -17 -17 -17 -17 -17 -17 -17 -18 -18 -18 -18 -18 -18 -18
-17 -17 -17 -17 -16 -16 -16 -16 -16 -16 -16 -16 -16 -16 -16 -16 -16 -16 -17 -16 -16 -16 -16 -16 -16 -16 -16 -17 -17 -17 -17 -17 -17 -17 -17 -17 -17 -17 -17 -18 -18 -18 -18 -18 -18 -18 -18 -18 -18 -18 -18 -18 -19 -18
-17 -17 -17 -17 -17 -17 -16 -16 -16 -17 -16 -16 -16 -16 -16 -16 -16 -16 -16 -16 -16 -16 -16 -16 -16 -17 -17 -17 -17 -17 -17 -17 -17 -17 -17 -17 -18 -18 -18 -18 -18 -18 -18 -19 -19 -19 -19 -19 -19 -19 -19 -19 -19 -19
Height
5760 5759 5759 5757 5755 5754 5754 5754 5752 5752 5752 5749 5749 5750 5748 5747 5746 5746 5745 5746 5747 5748 5749 5752 5755 5759 5763 5768 5774 5776 5777 5778 5782 5784 5788 5792 5790 5790 5789 5790 5791 5792 5793 5796 5798 5796 5798 5791 5790 5791 5790 5792 5794 5788
5748 5746 5745 5745 5745 5743 5743 5744 5743 5744 5743 5741 5742 5742 5741 5741 5741 5741 5741 5740 5740 5741 5744 5745 5748 5751 5755 5757 5761 5764 5771 5772 5775 5778 5781 5783 5784 5785 5785 5785 5785 5786 5787 5788 5790 5789 5785 5783 5782 5781 5782 5783 5784 5784
5737 5735 5734 5735 5734 5734 5733 5734 5734 5735 5735 5734 5734 5735 5735 5735 5735 5735 5735 5735 5736 5736 5738 5739 5741 5743 5746 5750 5752 5756 5761 5762 5768 5770 5774 5775 5777 5779 5779 5780 5779 5780 5780 5780 5779 5780 5775 5773 5773 5772 5773 5774 5776 5777
5727 5725 5723 5724 5725 5725 5723 5725 5725 5726 5727 5727 5727 5727 5728 5729 5728 5729 5729 5730 5731 5732 5733 5734 5736 5738 5740 5742 5746 5749 5750 5756 5759 5764 5766 5768 5771 5771 5771 5772 5773 5775 5773 5772 5770 5768 5765 5763 5764 5763 5764 5766 5767 5770
5719 5716 5715 5715 5716 5715 5714 5716 5717 5718 5719 5720 5720 5720 5721 5722 5722 5722 5723 5724 5724 5727 5729 5730 5730 5732 5734 5736 5740 5742 5745 5748 5752 5756 5758 5762 5764 5764 5766 5767 5769 5767 5766 5764 5761 5759 5755 5756 5754 5755 5756 5757 5759 5762
5707 5706 5705 5707 5707 5706 5706 5707 5709 5711 5711 5712 5712 5713 5714 5714 5716 5716 5717 5717 5717 5720 5724 5724 5726 5727 5728 5731 5733 5736 5739 5742 5746 5749 5753 5757 5757 5760 5761 5762 5762 5761 5759 5755 5752 5749 5747 5747 5747 5747 5748 5751 5753 5755
5697 5696 5695 5697 5697 5697 5697 5698 5700 5702 5704 5704 5705 5706 5707 5708 5709 5710 5711 5711 5712 5714 5717 5719 5721 5722 5724 5725 5728 5731 5734 5738 5741 5744 5747 5750 5751 5753 5755 5756 5756 5755 5752 5748 5743 5739 5737 5736 5736 5739 5741 5745 5747 5749
5689 5689 5687 5687 5688 5688 5689 5690 5692 5694 5696 5697 5699 5700 5701 5702 5702 5703 5704 5704 5706 5708 5710 5713 5714 5717 5718 5720 5723 5726 5728 5732 5735 5739 5742 5745 5746 5748 5751 5751 5751 5749 5746 5741 5736 5733 5731 5728 5728 5734 5737 5739 5742 5745
5679 5679 5679 5678 5679 5678 5680 5681 5683 5686 5687 5689 5691 5693 5695 5695 5696 5697 5698 5698 5700 5704 5705 5708 5709 5710 5713 5714 5717 5719 5722 5725 5730 5732 5735 5739 5741 5745 5746 5748 5747 5745 5742 5737 5732 5729 5727 5729 5729 5730 5733 5736 5738 5742
5669 5670 5670 5670 5670 5670 5671 5673 5676 5679 5681 5683 5685 5687 5689 5689 5690 5691 5691 5693 5694 5696 5698 5700 5701 5703 5707 5709 5712 5716 5718 5722 5725 5729 5731 5733 5738 5740 5743 5744 5743 5741 5739 5735 5731 5727 5725 5725 5725 5727 5730 5733 5736 5739
5660 5661 5662 5662 5662 5663 5664 5667 5670 5672 5674 5676 5678 5681 5682 5683 5684 5684 5686 5687 5689 5691 5692 5693 5696 5699 5702 5706 5708 5711 5714 5718 5721 5727 5730 5731 5734 5736 5739 5740 5740 5739 5737 5734 5730 5728 5726 5725 5725 5727 5728 5731 5734 5736
5652 5653 5653 5654 5656 5657 5657 5660 5663 5665 5668 5670 5673 5675 5676 5677 5678 5680 5681 5683 5685 5686 5687 5689 5692 5695 5698 5701 5705 5707 5711 5711 5717 5721 5723 5726 5730 5732 5735 5737 5737 5737 5736 5734 5732 5729 5727 5727 5726 5727 5729 5731 5733 5736
5644 5645 5646 5647 5648 5651 5652 5655 5658 5659 5661 5664 5667 5668 5670 5673 5674 5676 5677 5678 5680 5681 5684 5686 5688 5690 5693 5697 5700 5701 5705 5710 5712 5715 5720 5723 5724 5729 5732 5734 5735 5735 5735 5734 5733 5731 5729 5729 5729 5729 5731 5732 5734 5735
5636 5638 5639 5641 5642 5644 5647 5649 5651 5653 5655 5658 5661 5663 5666 5668 5670 5672 5672 5674 5676 5678 5680 5682 5683 5684 5688 5690 5694 5698 5703 5705 5708 5713 5717 5720 5720 5725 5728 5730 5732 5732 5733 5733 5733 5732 5731 5730 5730 5730 5731 5732 5734 5736
5629 5631 5632 5634 5636 5637 5640 5642 5644 5646 5649 5651 5655 5659 5662 5662 5665 5666 5669 5671 5672 5674 5676 5677 5679 5681 5683 5686 5689 5694 5698 5701 5704 5710 5716 5714 5717 5721 5723 5726 5728 5729 5730 5731 5732 5732 5732 5732 5732 5732 5733 5733 5734 5735
5621 5623 5625 5627 5629 5630 5633 5635 5637 5640 5642 5646 5651 5655 5655 5658 5660 5662 5663 5666 5668 5670 5672 5674 5676 5677 5679 5682 5686 5690 5693 5697 5700 5704 5706 5709 5713 5715 5718 5721 5723 5725 5726 5728 5729 5730 5731 5732 5732 5732 5733 5734 5735 5736
5614 5616 5618 5620 5621 5624 5626 5628 5630 5632 5636 5642 5645 5644 5648 5652 5655 5657 5659 5662 5664 5666 5668 5669 5672 5674 5677 5679 5682 5686 5689 5693 5694 5699 5702 5703 5706 5710 5713 5715 5718 5720 5722 5723 5725 5727 5729 5730 5731 5732 5733 5734 5734 5735
5607 5609 5611 5612 5614 5616 5618 5620 5622 5627 5631 5634 5636 5638 5641 5645 5649 5652 5654 5658 5661 5662 5664 5666 5668 5670 5673 5676 5678 5680 5682 5683 5686 5693 5695 5695 5699 5703 5706 5710 5712 5715 5717 5719 5721 5722 5724 5726 5728 5729 5731 5732 5732 5733
5602 5603 5605 5606 5608 5609 5611 5614 5617 5621 5623 5625 5629 5632 5637 5641 5645 5647 5650 5653 5655 5656 5659 5661 5663 5667 5670 5672 5673 5675 5676 5678 5679 5684 5686 5689 5692 5696 5700 5704 5707 5709 5711 5713 5715 5717 5719 5720 5722 5724 5725 5726 5727 5728
5597 5599 5600 5601 5603 5605 5607 5610 5612 5615 5617 5620 5623 5627 5631 5635 5638 5641 5645 5647 5649 5652 5653 5655 5660 5664 5666 5667 5667 5668 5671 5666 5668 5676 5680 5684 5687 5690 5693 5698 5700 5702 5704 5706 5708 5710 5712 5714 5716 5717 5718 5720 5721 5721
5594 5596 5597 5598 5600 5603 5605 5607 5610 5612 5614 5616 5619 5622 5625 5629 5632 5635 5637 5638 5641 5646 5649 5652 5655 5659 5659 5659 5659 5663 5666 5669 5672 5674 5677 5678 5681 5682 5687 5690 5693 5696 5698 5700 5702 5704 5705 5707 5708 5710 5711 5712 5712 5713
5592 5593 5595 5597 5600 5602 5604 5606 5608 5610 5612 5612 5615 5618 5621 5623 5626 5628 5630 5633 5636 5640 5642 5644 5650 5655 5655 5654 5656 5658 5663 5666 5667 5668 5670 5672 5674 5675 5679 5683 5685 5687 5690 5692 5694 5696 5697 5698 5699 5701 5701 5702 5703 5703
5590 5592 5594 5597 5599 5601 5604 5604 5606 5608 5609 5611 5613 5616 5619 5621 5623 5626 5628 5631 5634 5637 5639 5642 5645 5649 5652 5654 5657 5659 5661 5661 5662 5663 5665 5668 5670 5671 5672 5675 5677 5680 5682 5683 5685 5686 5688 5689 5690 5691 5691 5692 5692 5693
5589 5591 5593 5595 5598 5600 5602 5603 5605 5607 5609 5610 5613 5615 5617 5620 5623 5625 5629 5631 5633 5635 5637 5639 5641 5643 5647 5649 5651 5652 5653 5654 5655 5657 5659 5660 5662 5663 5665 5666 5667 5670 5671 5673 5676 5677 5678 5679 5679 5681 5681 5682 5681 5682
5589 5591 5593 5594 5597 5599 5601 5603 5605 5607 5609 5610 5612 5615 5618 5621 5623 5626 5628 5630 5632 5634 5635 5636 5637 5638 5640 5642 5644 5645 5646 5647 5649 5651 5652 5653 5654 5656 5656 5657 5658 5659 5661 5662 5664 5666 5667 5668 5668 5669 5671 5671 5670 5672
5587 5590 5594 5595 5598 5599 5601 5604 5605 5607 5610 5611 5614 5616 5619 5622 5624 5625 5627 5628 5629 5631 5633 5635 5635 5636 5638 5640 5641 5642 5642 5642 5643 5644 5645 5646 5647 5648 5649 5649 5651 5651 5650 5652 5653 5653 5655 5656 5657 5657 5658 5658 5659 5658
5589 5592 5594 5596 5598 5600 5602 5604 5607 5609 5610 5613 5615 5617 5620 5623 5624 5626 5627 5628 5630 5630 5632 5634 5635 5637 5638 5638 5638 5638 5637 5638 5639 5640 5640 5640 5640 5642 5643 5643 5642 5641 5641 5640 5640 5640 5642 5644 5645 5644 5643 5644 5647 5649
5591 5592 5594 5597 5599 5601 5604 5606 5608 5610 5613 5615 5617 5619 5621 5623 5626 5628 5629 5630 5630 5632 5633 5634 5635 5637 5637 5637 5636 5635 5635 5635 5636 5635 5635 5637 5637 5637 5637 5636 5635 5634 5633 5633 5633 5633 5634 5635 5635 5636 5637 5638 5639 5640
5591 5593 5596 5598 5601 5604 5606 5608 5610 5612 5615 5617 5620 5621 5623 5625 5627 5629 5630 5631 5632 5632 5632 5633 5635 5636 5636 5636 5635 5635 5635 5635 5635 5635 5634 5634 5634 5633 5632 5631 5631 5630 5630 5630 5630 5630 5630 5630 5630 5630 5630 5630 5630 5631
5594 5596 5599 5602 5604 5606 5608 5610 5613 5615 5618 5619 5623 5625 5626 5626 5628 5630 5632 5637 5635 5635 5635 5636 5637 5637 5636 5636 5637 5636 5636 5635 5635 5634 5633 5633 5631 5630 5629 5628 5627 5626 5626 5625 5625 5624 5623 5622 5622 5621 5620 5620 5620 5619
5597 5600 5604 5605 5607 5610 5612 5615 5617 5619 5622 5623 5625 5626 5628 5629 5630 5632 5633 5634 5635 5635 5636 5636 5636 5636 5636 5637 5635 5636 5636 5633 5631 5630 5629 5628 5627 5626 5624 5623 5621 5619 5618 5617 5615 5614 5613 5612 5611 5610 5609 5609 5609 5608
5602 5604 5607 5609 5611 5614 5616 5619 5621 5623 5625 5626 5627 5629 5630 5631 5632 5633 5633 5634 5634 5635 5636 5637 5636 5635 5635 5634 5633 5633 5632 5631 5628 5627 5626 5625 5623 5621 5619 5616 5614 5612 5609 5607 5605 5604 5602 5601 5599 5598 5597 5596 5596 5595
5605 5607 5610 5612 5615 5617 5620 5622 5624 5626 5627 5628 5629 5630 5631 5631 5632 5633 5634 5634 5635 5635 5635 5635 5634 5634 5633 5632 5631 5629 5628 5626 5624 5622 5620 5618 5616 5613 5611 5608 5605 5602 5599 5597 5594 5591 5589 5588 5586 5585 5584 5583 5582 5582
Wind_Speed
46 44 41 42 38 35 30 31 31 30 28 24 24 24 22 20 18 18 18 20 24 26 27 25 27 27 30 28 28 26 30 31 26 25 17 17 21 19 20 17 19 19 20 18 19 24 25 34 36 34 32 31 32 32
43 44 45 40 38 34 26 28 29 29 26 24 24 22 21 20 17 17 15 14 17 22 25 26 25 25 27 33 35 35 29 29 26 22 18 17 23 24 20 17 20 21 23 25 24 25 31 32 30 30 29 30 32 33
42 42 40 40 34 29 25 27 28 26 24 23 24 24 22 20 20 20 18 16 13 11 12 19 29 29 32 32 36 32 36 35 22 25 22 14 20 22 16 16 19 20 23 25 28 28 34 35 32 30 29 27 29 30
37 33 31 33 28 28 24 27 26 26 25 24 23 21 22 22 20 21 19 19 18 14 14 15 18 25 25 26 24 31 36 27 25 22 26 25 23 18 18 19 19 20 25 26 28 32 33 35 30 31 28 27 26 26
36 33 31 29 28 26 25 26 23 23 23 24 23 21 23 23 21 21 20 20 21 18 18 17 16 22 27 27 25 30 26 23 21 24 25 23 18 22 16 19 16 22 25 26 27 24 29 26 31 24 23 23 25 26
34 34 33 35 32 30 29 29 27 26 24 25 25 22 23 23 22 21 20 19 19 21 19 19 15 15 24 26 22 27 24 20 22 21 21 16 28 19 17 14 17 19 21 25 24 26 30 27 33 24 22 20 20 24
28 26 30 35 33 29 22 23 27 26 25 23 22 23 24 24 23 21 19 19 20 19 19 19 18 17 19 21 20 20 19 21 23 22 24 23 22 21 14 13 14 17 19 23 22 23 22 25 26 23 21 20 18 19
31 30 29 28 31 31 28 27 22 22 24 24 24 25 25 24 22 20 18 18 19 20 18 16 19 19 20 21 21 22 22 23 23 24 21 23 23 17 13 9 13 14 16 20 18 16 14 10 17 19 17 16 16 18
33 33 30 31 29 30 29 28 23 27 30 25 25 25 24 22 21 19 17 18 19 20 19 18 20 21 22 23 23 22 23 23 23 23 23 25 23 14 12 9 10 11 13 17 14 13 10 10 19 15 14 13 14 15
31 30 28 27 26 29 23 23 24 25 22 21 22 20 21 20 18 17 17 17 18 20 18 19 22 23 20 23 23 22 23 21 23 20 22 24 18 17 12 8 8 9 11 14 10 8 5 8 9 14 16 14 13 13
27 26 27 29 27 28 26 25 27 22 20 21 18 19 19 16 16 16 16 15 16 15 15 20 20 21 20 21 22 24 21 22 21 23 14 24 21 19 13 9 6 6 7 10 9 6 1 3 7 11 13 16 15 15
28 26 26 25 23 19 12 16 19 20 19 18 19 18 17 16 16 16 14 13 13 15 15 18 18 19 17 21 23 22 21 22 22 19 26 26 22 18 15 11 5 5 5 5 8 3 0 3 7 10 14 14 15 14
26 24 24 23 21 23 22 22 22 22 21 20 18 19 18 17 16 14 13 13 14 16 16 15 16 18 19 23 27 10 28 23 27 28 25 23 25 20 17 13 7 4 4 3 2 5 1 5 7 9 10 11 13 13
24 23 22 22 23 23 22 20 21 22 20 21 19 19 18 16 15 14 15 16 14 13 13 16 15 17 20 25 28 30 27 25 24 22 22 19 27 23 20 16 12 7 5 5 2 1 3 4 3 6 9 10 10 11
24 23 23 26 21 21 22 21 19 20 21 22 19 18 15 16 14 15 15 13 14 15 13 16 13 17 23 27 27 24 17 14 17 22 17 27 28 25 23 19 16 11 8 8 7 6 4 3 4 5 5 5 6 8
21 20 21 22 22 22 22 22 22 22 22 22 17 16 17 16 15 14 14 16 14 14 14 13 15 19 23 26 27 25 25 23 21 19 28 27 30 28 26 23 20 17 13 12 12 10 9 9 9 8 8 9 9 8
20 21 21 21 21 22 22 23 23 24 23 19 19 23 20 20 19 18 17 17 16 13 15 17 16 17 23 24 24 22 25 26 26 18 19 33 32 31 29 26 23 21 17 15 14 15 13 12 11 13 12 11 11 11
20 19 19 19 20 21 22 23 24 22 19 20 24 25 25 25 23 20 19 18 16 14 14 18 18 17 16 16 18 22 21 23 25 29 24 32 36 34 32 29 26 23 21 18 16 15 16 16 15 14 12 13 14 14
16 15 15 16 16 17 19 21 21 17 20 22 24 24 25 26 25 23 21 20 19 18 17 20 22 20 17 16 16 18 19 22 28 24 36 30 37 34 32 31 29 26 25 22 20 18 17 18 18 18 18 19 19 18
14 13 13 13 14 14 14 15 15 16 19 21 23 23 25 28 28 27 26 24 24 23 23 24 22 19 16 19 23 25 23 8 17 25 28 33 32 33 33 30 31 31 30 28 26 25 24 22 21 21 21 21 21 23
12 12 12 13 11 9 9 11 13 12 9 17 19 21 22 23 23 23 25 28 28 26 23 24 26 21 20 10 16 23 27 23 19 18 24 33 29 32 32 30 32 33 33 32 31 30 30 29 28 28 28 27 28 29
11 10 11 13 12 8 5 10 14 11 9 12 17 17 15 17 17 18 19 19 20 24 26 28 27 24 22 22 17 16 21 22 20 23 24 26 30 32 31 33 34 34 34 34 33 32 32 31 31 31 31 32 32 32
11 10 13 15 13 11 8 7 9 8 8 10 11 12 13 13 13 13 12 15 16 19 21 20 23 29 22 20 20 17 15 16 18 21 23 25 28 28 29 29 30 34 36 36 34 32 32 33 33 33 31 31 32 32
11 11 11 13 13 11 10 10 8 8 8 9 9 11 12 13 13 11 10 10 11 13 13 15 19 26 28 25 23 23 23 23 24 24 23 22 23 28 32 31 32 31 34 39 36 33 34 34 37 38 37 33 28 31
11 11 11 13 12 11 11 9 8 7 9 9 11 13 12 10 10 11 9 9 10 8 7 8 12 16 21 26 26 26 26 26 24 21 21 23 25 25 26 34 34 34 33 35 38 39 39 38 34 34 34 35 31 32
11 13 16 12 11 13 12 11 10 12 11 12 14 12 13 13 11 9 7 5 6 6 5 3 6 10 10 10 13 14 16 19 21 22 20 19 22 23 21 23 23 26 30 34 40 41 41 40 41 39 43 35 25 26
14 15 13 13 14 15 13 12 15 14 13 16 14 13 12 10 8 6 4 4 4 6 5 3 2 6 5 4 5 7 10 10 12 15 14 16 17 21 23 24 25 28 29 30 30 34 41 44 41 33 23 16 21 25
15 15 14 14 15 15 17 20 17 15 15 14 16 18 15 7 4 7 5 5 6 5 4 6 6 4 1 2 3 5 3 6 8 8 7 14 18 19 22 23 19 12 8 9 10 11 12 14 16 18 20 23 26 26
13 15 16 17 19 16 13 14 18 19 19 19 18 14 10 9 8 6 6 7 6 6 5 6 7 4 4 5 6 5 4 3 3 3 4 5 7 8 9 10 11 12 13 14 14 15 16 17 18 20 21 23 25 26
17 17 18 16 14 14 16 19 16 14 13 14 17 10 6 10 13 12 10 12 5 8 10 12 8 2 3 3 2 1 2 4 6 5 7 8 9 10 11 12 14 16 17 19 20 21 22 23 25 26 28 29 29 31
21 18 14 13 14 20 22 20 19 19 18 18 12 11 11 9 7 5 4 5 5 8 8 7 5 2 1 0 2 3 1 3 12 12 14 15 17 17 19 20 22 23 24 24 25 26 26 26 27 28 28 29 29 29
23 22 22 29 28 20 17 17 18 12 11 13 15 12 6 6 4 3 3 4 6 6 3 2 2 3 5 6 9 9 10 12 13 14 16 18 20 20 21 22 23 25 26 28 29 30 31 32 33 34 34 34 34 33
23 20 26 25 20 19 17 15 13 11 8 7 5 4 5 6 5 3 3 4 4 3 2 3 5 7 8 10 11 12 13 15 15 16 18 19 21 23 26 28 30 31 33 34 35 36 36 37 37 36 37 38 37 34
Wind_Direction
285 283 282 281 277 274 277 282 283 280 278 273 277 279 276 280 275 272 266 255 252 242 244 240 243 238 232 225 227 230 240 234 239 228 219 237 234 262 258 253 260 258 254 253 266 263 248 256 269 264 257 260 255 263
291 284 275 278 277 273 274 280 281 276 272 270 269 273 275 269 270 268 270 262 256 252 247 243 241 234 226 227 237 227 229 238 226 233 231 232 243 258 266 259 249 248 252 251 240 239 255 264 271 271 263 258 254 254
291 285 277 277 273 270 271 275 277 269 268 269 268 268 268 267 267 264 263 265 264 261 264 264 249 238 226 225 228 222 229 227 213 232 232 242 226 250 241 254 250 261 259 262 263 263 263 264 266 266 264 256 251 250
292 284 278 275 273 274 273 270 270 263 262 265 268 261 266 270 266 266 260 262 253 254 259 266 258 252 238 231 237 236 231 220 216 219 233 232 250 251 242 252 258 268 275 276 270 265 265 268 265 262 259 252 244 242
290 284 277 269 273 274 270 259 267 260 260 262 264 264 267 268 267 266 262 265 251 247 253 258 255 242 239 241 242 226 219 218 215 226 233 236 260 243 231 246 267 268 276 282 281 274 273 268 268 264 253 246 240 232
284 280 270 267 269 275 272 256 259 259 257 258 265 263 266 270 268 268 265 264 253 244 247 248 249 237 235 242 241 222 218 221 227 229 234 233 244 229 233 249 260 280 289 290 287 272 269 263 253 258 246 239 239 230
276 279 267 266 270 263 262 252 258 253 255 255 257 264 264 272 272 270 265 248 246 245 244 245 247 240 230 231 224 220 224 228 230 230 233 237 228 218 234 251 275 290 299 302 294 281 268 259 256 250 242 236 237 228
272 269 271 264 259 255 252 255 261 249 252 251 259 264 270 272 270 267 257 249 244 240 241 248 253 240 230 222 228 232 230 228 228 224 221 233 218 218 233 254 278 303 315 316 304 301 275 258 259 244 233 230 230 222
269 270 274 268 271 256 260 253 245 256 248 244 257 260 264 268 265 256 251 247 246 243 245 251 244 241 226 224 227 221 223 225 223 221 223 214 209 210 227 253 290 312 327 328 313 311 287 220 234 224 218 221 218 215
267 265 269 269 271 264 262 239 255 252 251 254 254 258 265 262 259 252 248 246 249 248 247 241 231 231 222 224 225 216 221 217 221 214 221 214 209 214 224 247 289 312 332 343 322 319 293 230 211 204 201 202 198 199
266 268 268 269 277 271 248 238 247 241 246 252 261 264 263 260 252 246 242 247 246 240 236 230 227 219 219 223 218 216 223 220 214 208 233 220 211 216 217 236 277 298 322 351 353 339 24 169 171 179 189 185 189 188
266 269 270 267 263 261 234 241 246 237 242 252 259 260 255 251 246 242 244 247 241 235 230 231 228 217 229 223 217 213 213 214 231 215 220 211 216 210 216 226 254 273 295 349 14 3 291 158 167 173 177 181 184 187
262 267 266 266 262 263 266 257 245 239 244 250 253 252 254 250 245 241 246 234 230 226 222 232 231 227 223 216 213 207 194 212 229 217 212 211 215 212 215 219 235 260 251 294 6 46 118 175 169 168 173 181 183 193
258 264 260 259 252 250 247 240 240 239 240 244 244 251 255 254 242 242 236 231 234 225 231 231 242 224 212 215 210 211 217 222 224 216 208 217 215 213 214 218 228 244 240 226 237 261 111 105 142 184 194 196 198 198
255 262 258 253 247 236 235 236 237 239 239 241 243 247 255 248 237 232 229 225 214 222 232 233 234 214 212 212 217 216 211 224 214 212 202 227 216 216 217 218 225 235 245 231 220 212 212 190 166 165 168 180 189 192
256 253 248 248 242 240 242 240 239 241 242 243 247 250 245 231 232 231 225 219 221 227 226 231 229 217 212 208 217 215 212 214 221 213 217 225 221 219 222 220 224 230 232 239 236 229 222 215 210 203 200 202 209 213
256 251 249 245 243 242 241 242 243 242 243 241 235 236 228 215 208 214 215 220 223 223 216 223 227 227 221 221 225 228 224 218 224 219 222 230 226 220 222 224 225 230 230 236 240 236 233 230 228 223 218 214 218 222
250 250 250 248 245 245 244 243 244 244 239 232 229 231 223 211 208 205 210 214 219 222 221 226 221 221 226 225 227 234 237 235 237 224 226 233 226 223 219 222 225 229 231 233 238 238 239 237 235 238 239 236 239 242
247 246 247 245 242 242 243 241 243 239 233 232 228 227 221 215 216 218 222 224 225 223 217 224 222 214 217 224 237 232 241 230 234 236 214 226 227 226 225 225 227 230 233 233 233 235 236 240 242 239 237 239 243 247
242 243 243 234 223 228 233 232 231 227 229 227 226 223 219 221 225 230 233 236 236 235 232 228 215 218 227 231 231 223 224 207 200 240 230 224 222 226 227 227 231 232 234 237 237 237 240 243 248 252 255 257 257 256
238 245 239 226 214 204 205 212 196 198 224 225 221 220 222 227 231 235 236 235 231 230 235 222 218 214 214 225 212 231 235 239 244 234 215 226 228 227 228 226 232 236 240 243 247 246 247 247 251 255 258 261 262 263
233 230 202 193 192 193 214 215 218 232 225 216 209 213 218 218 222 227 226 221 217 220 223 218 219 207 216 233 232 232 234 245 250 237 231 232 238 241 239 232 231 235 239 241 245 250 253 254 254 256 260 264 268 267
214 206 207 210 217 233 254 216 194 180 186 184 192 199 195 197 201 202 207 209 206 208 215 225 218 209 218 229 233 229 227 238 242 238 233 232 237 246 252 249 244 239 239 244 245 248 253 255 257 257 260 266 266 265
208 218 225 221 221 226 192 168 170 183 191 198 193 183 181 187 186 192 188 186 200 215 227 230 228 225 229 234 232 233 239 249 253 248 243 241 240 243 246 249 249 246 247 246 248 248 253 258 257 254 259 269 275 263
218 203 185 173 166 165 170 171 163 162 154 151 160 162 155 156 164 162 171 176 181 191 215 219 225 227 229 233 240 249 253 254 255 261 258 252 248 247 250 247 249 249 243 247 248 249 252 253 253 249 251 259 260 270
174 168 160 160 166 161 157 153 146 152 152 149 147 150 153 152 158 169 178 199 209 186 182 193 202 209 218 235 243 256 258 255 252 257 260 260 251 235 247 254 257 259 255 250 251 253 249 254 256 251 255 256 259 267
154 161 164 161 165 165 167 164 156 156 151 147 147 149 147 152 155 127 129 158 186 184 163 139 158 172 194 246 269 293 269 253 254 259 267 273 252 251 252 255 257 258 257 257 256 251 247 250 252 250 248 262 268 270
154 168 177 177 173 167 162 152 141 149 153 150 145 141 142 153 123 137 110 100 115 147 172 172 157 148 99 345 328 329 331 239 278 276 264 250 256 264 256 251 244 248 268 291 295 296 286 281 277 275 271 267 266 265
168 168 167 168 156 143 135 150 151 142 141 142 137 135 129 136 137 129 106 105 95 99 112 151 167 183 10 29 38 26 2 353 328 311 312 295 294 300 302 302 296 290 284 281 280 277 275 272 272 269 268 268 268 269
162 164 163 156 146 124 121 157 153 144 122 120 115 121 138 131 122 121 120 118 130 109 109 105 64 93 97 101 105 196 278 266 258 282 289 289 285 288 288 287 285 282 280 276 275 274 275 275 276 276 276 275 275 276
160 160 146 131 131 126 129 127 128 122 120 123 128 131 135 129 121 127 141 151 136 137 134 140 164 241 239 213 296 335 101 300 308 306 301 297 293 292 290 288 286 285 284 283 282 281 280 278 277 276 275 274 273 274
151 146 134 137 143 152 142 136 134 115 116 136 136 164 170 154 158 157 176 175 178 168 167 231 257 258 278 289 292 294 291 293 295 294 291 289 291 293 293 293 293 293 292 291 288 286 285 282 281 280 279 279 278 277
159 154 140 135 136 140 139 136 136 129 126 116 118 150 178 206 226 194 177 175 165 180 243 289 282 279 285 290 294 296 296 298 301 304 303 302 299 299 298 296 294 291 289 287 285 284 282 280 278 277 277 276 275 274